CW1575 Weather Reports


Display with metric or nautical units.
time (UTC)temp
F
wind
direction
speed
MPH
gust
MPH
rain 1hr
in
rain 24hr
in
rain mn
in
humidity
%
barometer
mb
20170529001005 73 24 2.0 3.0 0.00 0.04 0.00 27 1022.7
20170529000504 74 235 1.0 6.0 0.00 0.05 0.00 27 1022.8
20170529000005 74 347 2.0 6.0 0.00 0.05 0.00 28 1022.5
20170528235504 74 21 2.0 8.0 0.00 0.05 0.00 28 1022.5
20170528235005 74 345 3.0 5.0 0.00 0.05 0.00 28 1022.5
20170528234505 74 12 3.0 6.0 0.00 0.05 0.00 28 1022.6
20170528234004 74 21 5.0 9.0 0.00 0.05 0.00 28 1022.9
20170528233505 74 307 5.0 9.0 0.00 0.05 0.00 28 1022.9
20170528233005 74 333 3.0 8.0 0.00 0.05 0.00 29 1022.9
20170528232504 74 315 5.0 9.0 0.00 0.05 0.00 28 1023.0
20170528232005 74 332 2.0 6.0 0.00 0.05 0.00 27 1022.9
20170528231505 74 320 4.0 7.0 0.00 0.05 0.00 28 1023.0
20170528231004 74 355 3.0 8.0 0.00 0.05 0.00 29 1022.9
20170528230505 74 1 2.0 8.0 0.00 0.05 0.00 28 1023.1
20170528230005 73 354 2.0 5.0 0.00 0.05 0.00 29 1022.9
20170528225504 73 110 1.0 3.0 0.00 0.05 0.00 27 1022.9
20170528225005 74 126 2.0 5.0 0.00 0.05 0.00 27 1023.1
20170528224505 74 105 3.0 7.0 0.00 0.05 0.00 26 1023.2
20170528224004 75 45 2.0 3.0 0.00 0.05 0.00 27 1023.2
20170528223505 75 219 2.0 5.0 0.00 0.05 0.00 26 1023.3
20170528223005 75 111 3.0 6.0 0.00 0.05 0.00 26 1023.6
20170528222504 75 250 2.0 3.0 0.00 0.05 0.00 26 1023.5
20170528222005 75 243 1.0 5.0 0.00 0.05 0.00 27 1023.5
20170528221505 75 14 3.0 7.0 0.00 0.05 0.00 28 1023.5
20170528221005 75 26 1.0 5.0 0.00 0.05 0.00 27 1023.5
20170528220505 75 15 3.0 6.0 0.00 0.05 0.00 26 1023.6
20170528220004 76 76 2.0 7.0 0.00 0.05 0.00 26 1023.4
20170528215504 76 39 4.0 9.0 0.00 0.05 0.00 28 1023.6
20170528215005 76 279 2.0 5.0 0.00 0.05 0.00 26 1023.7
20170528214504 76 188 4.0 6.0 0.00 0.05 0.00 25 1023.7
20170528214005 76 134 1.0 8.0 0.00 0.05 0.00 26 1023.9
20170528213505 76 63 2.0 5.0 0.00 0.05 0.00 26 1023.9
20170528213005 77 28 4.0 9.0 0.00 0.05 0.00 26 1023.9
20170528212505 77 23 3.0 10.0 0.00 0.05 0.00 26 1024.2
20170528212004 77 13 4.0 10.0 0.00 0.05 0.00 26 1024.3
20170528211504 76 294 1.0 3.0 0.00 0.05 0.00 27 1024.3
20170528211005 76 312 1.0 3.0 0.00 0.05 0.00 27 1024.3
20170528210505 75 257 1.0 6.0 0.00 0.05 0.00 25 1024.1
20170528210005 75 302 5.0 10.0 0.00 0.05 0.00 27 1024.1
20170528205505 75 338 3.0 7.0 0.00 0.05 0.00 27 1024.0
20170528205004 74 37 3.0 8.0 0.00 0.05 0.00 27 1024.1
20170528204505 74 6 4.0 6.0 0.00 0.05 0.00 30 1024.2
20170528204005 74 358 4.0 12.0 0.00 0.05 0.00 30 1024.2
20170528203505 73 17 2.0 7.0 0.00 0.05 0.00 29 1024.2
20170528203005 73 44 3.0 8.0 0.00 0.05 0.00 28 1024.3
20170528202505 73 81 2.0 6.0 0.00 0.05 0.00 28 1024.5
20170528202005 73 122 3.0 6.0 0.00 0.05 0.00 28 1024.6
20170528201505 73 100 3.0 7.0 0.00 0.05 0.00 28 1024.6
20170528201004 73 153 2.0 7.0 0.00 0.05 0.00 27 1024.8
20170528200504 72 29 6.0 10.0 0.00 0.05 0.00 30 1024.7
20170528200005 73 100 2.0 3.0 0.00 0.05 0.00 28 1024.6
20170528195505 73 64 2.0 8.0 0.00 0.06 0.00 28 1024.7
20170528195005 73 57 3.0 8.0 0.00 0.07 0.00 28 1024.8
20170528194504 73 66 5.0 10.0 0.00 0.07 0.00 28 1024.8
20170528194005 74 144 2.0 12.0 0.00 0.09 0.00 28 1025.0
20170528193504 74 25 4.0 10.0 0.00 0.10 0.00 31 1024.9
20170528193005 73 78 1.0 3.0 0.00 0.13 0.00 29 1025.0
20170528192505 73 83 2.0 5.0 0.00 0.15 0.00 26 1025.0
20170528192005 73 15 5.0 10.0 0.00 0.16 0.00 29 1025.4
20170528191505 73 11 6.0 14.0 0.00 0.18 0.00 29 1025.4
20170528191005 73 38 2.0 3.0 0.00 0.20 0.00 27 1025.5
20170528190505 74 19 5.0 12.0 0.00 0.21 0.00 30 1025.6
20170528190005 74 75 3.0 8.0 0.00 0.22 0.00 27 1025.2
20170528185505 74 233 4.0 7.0 0.00 0.22 0.00 26 1025.4
20170528185005 74 33 4.0 9.0 0.00 0.23 0.00 29 1025.5
20170528184505 73 4 2.0 6.0 0.00 0.23 0.00 28 1025.6
20170528184005 73 5 3.0 7.0 0.00 0.23 0.00 27 1025.6
20170528183505 73 106 5.0 9.0 0.00 0.23 0.00 27 1025.7
20170528183005 73 315 0.0 3.0 0.00 0.23 0.00 28 1025.7
20170528182504 72 305 3.0 5.0 0.00 0.23 0.00 29 1025.7
20170528182005 72 346 2.0 8.0 0.00 0.23 0.00 31 1025.8
20170528181504 71 43 4.0 8.0 0.00 0.24 0.00 28 1025.8
20170528181005 71 313 3.0 7.0 0.00 0.25 0.00 28 1026.0
20170528180504 71 5 1.0 3.0 0.00 0.26 0.00 26 1026.1
20170528180005 71 355 0.0 5.0 0.00 0.27 0.00 28 1025.8
20170528175504 71 309 2.0 6.0 0.00 0.27 0.00 27 1025.9
20170528175005 71 342 2.0 10.0 0.00 0.27 0.00 30 1026.0
20170528174504 71 34 3.0 7.0 0.00 0.27 0.00 28 1025.9
20170528174004 71 315 4.0 8.0 0.00 0.27 0.00 30 1025.8
20170528173505 71 352 3.0 8.0 0.00 0.27 0.00 30 1025.8
20170528173005 71 134 2.0 3.0 0.00 0.27 0.00 27 1025.9
20170528172504 71 27 3.0 8.0 0.00 0.27 0.00 30 1025.9
20170528172004 70 20 5.0 9.0 0.00 0.27 0.00 31 1026.1
20170528171505 70 335 3.0 8.0 0.00 0.27 0.00 30 1026.2
20170528171005 70 209 2.0 8.0 0.00 0.27 0.00 28 1026.2
20170528170504 70 301 3.0 6.0 0.00 0.27 0.00 33 1026.1
20170528170005 69 11 2.0 5.0 0.00 0.27 0.00 33 1026.1
20170528165505 69 22 1.0 7.0 0.00 0.27 0.00 31 1026.1
20170528165005 68 8 5.0 8.0 0.00 0.27 0.00 30 1026.1
20170528164505 68 115 3.0 8.0 0.00 0.27 0.00 28 1026.0
20170528164005 68 308 1.0 7.0 0.00 0.27 0.00 34 1026.2
20170528163505 67 358 1.0 3.0 0.00 0.27 0.00 33 1026.1
20170528163004 68 199 2.0 9.0 0.00 0.27 0.00 30 1026.1
20170528162505 68 234 3.0 9.0 0.00 0.27 0.00 32 1026.2
20170528162005 67 3 2.0 7.0 0.00 0.27 0.00 30 1026.1
20170528161504 67 29 2.0 3.0 0.00 0.27 0.00 30 1026.3
20170528161005 67 304 2.0 5.0 0.00 0.27 0.00 33 1026.4
20170528160504 67 9 3.0 6.0 0.00 0.27 0.00 35 1026.4
20170528160005 66 2 2.0 3.0 0.00 0.27 0.00 35 1026.0
20170528155504 66 90 2.0 9.0 0.00 0.27 0.00 32 1026.1
20170528155005 65 306 2.0 8.0 0.00 0.27 0.00 34 1026.3
20170528154505 65 19 4.0 8.0 0.00 0.27 0.00 35 1026.2
20170528154004 64 284 0.0 3.0 0.00 0.27 0.00 35 1026.1
20170528153505 64 149 1.0 3.0 0.00 0.27 0.00 36 1026.0
20170528153004 63 295 0.0 3.0 0.00 0.27 0.00 38 1026.1
20170528152505 62 295 0.0 3.0 0.00 0.27 0.00 40 1026.2
20170528152005 62 257 1.0 3.0 0.00 0.27 0.00 44 1026.2
20170528151504 61 141 1.0 3.0 0.00 0.27 0.00 44 1026.2
20170528151005 61 165 2.0 3.0 0.00 0.27 0.00 48 1026.3
20170528150504 60 170 1.0 2.0 0.00 0.27 0.00 48 1026.2
20170528150005 60 114 1.0 3.0 0.00 0.27 0.00 49 1026.2
20170528145505 59 114 1.0 3.0 0.00 0.27 0.00 50 1026.2
20170528145005 58 114 1.0 3.0 0.00 0.27 0.00 52 1026.1
20170528144505 57 114 2.0 3.0 0.00 0.27 0.00 52 1026.3
20170528144004 56 115 1.0 3.0 0.00 0.27 0.00 57 1026.2
20170528143505 56 115 1.0 3.0 0.00 0.27 0.00 59 1026.2
20170528143005 55 115 2.0 3.0 0.00 0.27 0.00 62 1026.3
20170528142504 54 115 1.0 3.0 0.00 0.27 0.00 60 1026.2
20170528142005 53 115 1.0 3.0 0.00 0.27 0.00 63 1026.2
20170528141504 52 115 2.0 3.0 0.00 0.27 0.00 66 1026.3
20170528141005 51 115 1.0 3.0 0.00 0.27 0.00 68 1026.2
20170528140505 50 115 1.0 3.0 0.00 0.27 0.00 71 1026.2
20170528140004 48 117 0.0 3.0 0.00 0.27 0.00 74 1026.3
20170528135505 47 111 2.0 3.0 0.00 0.27 0.00 79 1026.3
20170528135005 45 111 1.0 3.0 0.00 0.27 0.00 83 1026.2
20170528134504 44 181 1.0 2.0 0.00 0.27 0.00 87 1026.2
20170528134005 43 181 0.0 3.0 0.00 0.27 0.00 89 1026.2
20170528133505 42 185 0.0 3.0 0.00 0.27 0.00 92 1026.2
20170528133004 40 186 0.0 0.0 0.00 0.27 0.00 93 1026.2
20170528132505 40 186 0.0 0.0 0.00 0.27 0.00 93 1026.2
20170528132004 39 186 0.0 0.0 0.00 0.27 0.00 94 1026.3
20170528131505 39 186 0.0 0.0 0.00 0.27 0.00 94 1025.9
20170528131004 38 209 0.0 0.0 0.00 0.27 0.00 94 1025.8
20170528130504 38 211 0.0 0.0 0.00 0.27 0.00 94 1025.5
20170528130005 38 211 0.0 0.0 0.00 0.27 0.00 94 1025.9
20170528125504 37 211 0.0 0.0 0.00 0.27 0.00 94 1025.8
20170528125005 37 211 0.0 0.0 0.00 0.27 0.00 94 1025.8
20170528124505 37 211 0.0 0.0 0.00 0.27 0.00 94 1025.7
20170528124004 37 211 0.0 0.0 0.00 0.27 0.00 93 1025.6
20170528123505 37 211 0.0 0.0 0.00 0.27 0.00 93 1025.6
20170528123005 37 211 0.0 0.0 0.00 0.27 0.00 93 1025.6
20170528122505 37 211 0.0 0.0 0.00 0.27 0.00 93 1025.5
20170528122004 36 211 0.0 0.0 0.00 0.27 0.00 93 1025.5
20170528121504 36 211 0.0 0.0 0.00 0.27 0.00 93 1025.4
20170528121005 36 211 0.0 0.0 0.00 0.27 0.00 93 1025.4
20170528120504 36 211 0.0 0.0 0.00 0.27 0.00 92 1025.4
20170528120005 37 211 0.0 0.0 0.00 0.27 0.00 92 1025.4
20170528115504 37 211 0.0 0.0 0.00 0.27 0.00 93 1025.3
20170528115005 37 211 0.0 0.0 0.00 0.27 0.00 92 1025.3
20170528114504 37 211 0.0 0.0 0.00 0.27 0.00 92 1025.3
20170528114005 37 211 0.0 0.0 0.00 0.27 0.00 92 1025.2
20170528113505 37 211 0.0 0.0 0.00 0.27 0.00 92 1025.2
20170528113005 37 211 0.0 0.0 0.00 0.27 0.00 92 1025.1
20170528112504 37 211 0.0 0.0 0.00 0.27 0.00 92 1025.1
20170528112005 37 211 0.0 0.0 0.00 0.27 0.00 92 1025.1
20170528111504 37 211 0.0 0.0 0.00 0.27 0.00 92 1025.0
20170528111005 37 211 0.0 0.0 0.00 0.27 0.00 92 1024.9
20170528110505 37 211 0.0 0.0 0.00 0.27 0.00 92 1024.8
20170528110004 37 211 0.0 0.0 0.00 0.27 0.00 92 1025.2
20170528105505 37 211 0.0 0.0 0.00 0.27 0.00 92 1025.1
20170528105004 37 211 0.0 0.0 0.00 0.27 0.00 92 1025.1
20170528104505 37 211 0.0 0.0 0.00 0.27 0.00 92 1025.0
20170528104004 38 211 0.0 0.0 0.00 0.27 0.00 92 1025.1
20170528103505 38 211 0.0 0.0 0.00 0.27 0.00 92 1024.9
20170528103004 38 211 0.0 0.0 0.00 0.27 0.00 92 1024.7
20170528102505 38 211 0.0 0.0 0.00 0.27 0.00 92 1024.8
20170528102004 38 211 0.0 0.0 0.00 0.27 0.00 92 1024.9
20170528101505 38 211 0.0 0.0 0.00 0.27 0.00 92 1024.9
20170528101004 38 211 0.0 0.0 0.00 0.27 0.00 92 1024.8
20170528100505 38 211 0.0 0.0 0.00 0.27 0.00 92 1024.7
20170528100005 38 211 0.0 0.0 0.00 0.27 0.00 92 1024.9
20170528095505 38 211 0.0 0.0 0.00 0.27 0.00 92 1024.9
20170528095005 38 211 0.0 0.0 0.00 0.27 0.00 92 1024.9
20170528094504 39 211 0.0 0.0 0.00 0.27 0.00 92 1025.0
20170528094005 39 211 0.0 0.0 0.00 0.27 0.00 92 1024.9
20170528093504 39 211 0.0 0.0 0.00 0.27 0.00 92 1024.9
20170528093005 39 211 0.0 0.0 0.00 0.27 0.00 92 1024.9
20170528092504 39 211 0.0 0.0 0.00 0.27 0.00 92 1024.8
20170528092005 39 211 0.0 0.0 0.00 0.27 0.00 92 1024.8
20170528091504 39 211 0.0 0.0 0.00 0.27 0.00 91 1024.8
20170528091005 39 211 0.0 0.0 0.00 0.27 0.00 91 1024.8
20170528090504 39 211 0.0 0.0 0.00 0.27 0.00 97 1024.7
20170528090005 39 211 0.0 0.0 0.00 0.27 0.00 91 1025.1
20170528085505 39 211 0.0 0.0 0.00 0.27 0.00 91 1025.0
20170528085004 39 211 0.0 0.0 0.00 0.27 0.00 91 1025.1
20170528084505 40 211 0.0 0.0 0.00 0.27 0.00 91 1025.2
20170528084004 40 211 0.0 0.0 0.00 0.27 0.00 91 1025.2
20170528083505 40 211 0.0 0.0 0.00 0.27 0.00 91 1025.3
20170528083004 40 211 0.0 0.0 0.00 0.27 0.00 91 1025.3
20170528082505 40 211 0.0 0.0 0.00 0.27 0.00 91 1025.3
20170528082005 40 211 0.0 0.0 0.00 0.27 0.00 91 1025.2
20170528081505 40 211 0.0 0.0 0.00 0.27 0.00 91 1025.3
20170528081004 40 211 0.0 0.0 0.00 0.27 0.00 91 1025.2
20170528080505 40 211 0.0 0.0 0.00 0.27 0.00 91 1025.3
20170528080004 40 211 0.0 0.0 0.00 0.27 0.00 91 1025.3
20170528075505 41 211 0.0 0.0 0.00 0.27 0.00 91 1025.2
20170528075005 41 211 0.0 0.0 0.00 0.27 0.00 91 1025.4
20170528074505 41 211 0.0 0.0 0.00 0.27 0.00 91 1025.4
20170528074004 41 211 0.0 0.0 0.00 0.27 0.00 91 1025.3
20170528073504 41 211 0.0 0.0 0.00 0.27 0.00 91 1025.3
20170528073005 41 211 0.0 0.0 0.00 0.27 0.00 91 1025.4
20170528072504 41 211 0.0 0.0 0.00 0.27 0.00 91 1025.4
20170528072005 41 211 0.0 0.0 0.00 0.27 0.00 91 1025.4
20170528071504 41 211 0.0 0.0 0.00 0.27 0.00 91 1025.4
20170528071005 42 211 0.0 0.0 0.00 0.27 0.00 91 1025.4
20170528070504 42 211 0.0 0.0 0.00 0.27 0.00 91 1025.3
20170528070005 42 211 0.0 0.0 0.00 0.27 0.00 91 1025.4
20170528065505 42 211 0.0 0.0 0.00 0.27 0.00 91 1025.5
20170528065005 42 211 0.0 0.0 0.00 0.27 0.00 91 1025.6
20170528064504 42 211 0.0 0.0 0.00 0.27 0.00 91 1025.6
20170528064005 42 211 0.0 0.0 0.00 0.27 0.00 91 1025.6
20170528063505 42 211 0.0 0.0 0.00 0.27 0.00 91 1025.5
20170528063004 42 211 0.0 0.0 0.00 0.27 0.00 90 1025.5
20170528062505 42 211 0.0 0.0 0.00 0.27 0.00 90 1025.4
20170528062004 42 211 0.0 0.0 0.00 0.27 0.00 90 1025.4
20170528061505 43 211 0.0 0.0 0.00 0.27 0.00 90 1025.5
20170528061005 43 211 0.0 0.0 0.00 0.27 0.00 90 1025.4
20170528060504 43 211 0.0 0.0 0.00 0.27 0.00 90 1025.4
20170528060005 43 211 0.0 0.0 0.00 0.27 0.00 90 1025.6
20170528055504 43 211 0.0 0.0 0.00 0.27 0.27 90 1025.5
20170528055005 43 211 0.0 0.0 0.00 0.27 0.27 90 1025.5
20170528054505 43 211 0.0 0.0 0.00 0.27 0.27 89 1025.5
20170528054005 43 211 0.0 0.0 0.00 0.27 0.27 89 1025.5
20170528053505 43 211 0.0 0.0 0.00 0.27 0.27 89 1025.4
20170528053005 43 211 0.0 0.0 0.00 0.27 0.27 89 1025.5
20170528052505 44 211 0.0 0.0 0.00 0.27 0.27 89 1025.4
20170528052005 44 211 0.0 0.0 0.00 0.27 0.27 89 1025.4
20170528051505 44 211 0.0 0.0 0.00 0.27 0.27 89 1025.4
20170528051005 44 211 0.0 0.0 0.00 0.27 0.27 89 1025.3
20170528050504 44 211 0.0 0.0 0.00 0.27 0.27 89 1025.3
20170528050005 44 211 0.0 0.0 0.00 0.27 0.27 88 1025.3
20170528045504 44 211 0.0 1.0 0.00 0.27 0.27 88 1025.3
20170528045005 44 211 0.0 1.0 0.00 0.27 0.27 89 1025.3
20170528044504 44 211 0.0 0.0 0.00 0.27 0.27 88 1025.3
20170528044005 45 211 0.0 0.0 0.00 0.27 0.27 87 1025.3
20170528043505 45 211 0.0 0.0 0.00 0.27 0.27 87 1025.2
20170528043004 45 211 0.0 0.0 0.00 0.27 0.27 87 1025.1
20170528042505 45 211 0.0 0.0 0.00 0.27 0.27 86 1025.0
20170528042004 45 211 0.0 0.0 0.00 0.27 0.27 86 1024.9
20170528041505 45 211 0.0 0.0 0.00 0.27 0.27 86 1024.9
20170528041004 45 211 0.0 0.0 0.00 0.27 0.27 86 1024.9
20170528040504 46 211 0.0 0.0 0.00 0.27 0.27 86 1024.7
20170528040004 46 211 0.0 0.0 0.00 0.27 0.27 86 1025.1
20170528035504 46 211 0.0 0.0 0.00 0.27 0.27 85 1025.0
20170528035005 46 211 0.0 0.0 0.00 0.27 0.27 85 1025.0
20170528034504 46 211 0.0 0.0 0.00 0.27 0.27 85 1024.8
20170528034005 47 211 0.0 0.0 0.00 0.27 0.27 85 1024.6
20170528033504 47 211 0.0 0.0 0.00 0.27 0.27 85 1024.5
20170528033005 47 211 0.0 0.0 0.00 0.27 0.27 85 1024.5
20170528032504 47 211 0.0 0.0 0.00 0.27 0.27 85 1024.3
20170528032005 47 211 0.0 0.0 0.00 0.27 0.27 84 1024.1
20170528031504 48 211 0.0 0.0 0.00 0.27 0.27 84 1024.1
20170528031005 48 211 0.0 0.0 0.00 0.27 0.27 84 1024.3
20170528030504 48 211 0.0 0.0 0.00 0.27 0.27 84 1024.0
20170528030005 48 211 0.0 0.0 0.00 0.27 0.27 83 1024.1
20170528025504 49 211 0.0 0.0 0.00 0.27 0.27 83 1024.1
20170528025004 49 211 0.0 0.0 0.00 0.27 0.27 82 1024.1
20170528024505 49 211 0.0 2.0 0.00 0.27 0.27 82 1024.1
20170528024004 49 211 0.0 0.0 0.00 0.27 0.27 81 1024.0
20170528023505 50 211 0.0 0.0 0.00 0.27 0.27 81 1023.9
20170528023004 50 211 0.0 0.0 0.00 0.27 0.27 80 1023.8
20170528022505 50 211 0.0 0.0 0.00 0.27 0.27 80 1023.8
20170528022005 50 211 0.0 0.0 0.00 0.27 0.27 80 1024.0
20170528021505 51 211 0.0 0.0 0.00 0.27 0.27 80 1024.1
20170528021005 51 211 0.0 0.0 0.00 0.27 0.27 80 1023.9
20170528020505 51 211 0.0 0.0 0.00 0.27 0.27 80 1024.0
20170528020004 51 211 0.0 0.0 0.00 0.27 0.27 80 1024.0
20170528015504 51 211 0.0 1.0 0.00 0.27 0.27 80 1023.9
20170528015004 51 211 0.0 0.0 0.00 0.27 0.27 80 1024.0
20170528014504 51 211 0.0 1.0 0.00 0.27 0.27 80 1024.0
20170528014005 51 211 0.0 2.0 0.00 0.27 0.27 80 1023.9
20170528013504 52 211 1.0 2.0 0.00 0.27 0.27 81 1023.7
20170528013005 52 211 0.0 2.0 0.00 0.27 0.27 81 1023.5
20170528012504 52 211 0.0 0.0 0.00 0.27 0.27 81 1023.6
20170528012005 52 211 0.0 0.0 0.00 0.27 0.27 80 1023.5
20170528011504 52 211 0.0 0.0 0.00 0.27 0.27 80 1023.3
20170528011004 52 211 0.0 0.0 0.04 0.27 0.27 80 1023.4
20170528010505 52 211 0.0 0.0 0.05 0.27 0.27 79 1023.4
20170528010004 52 211 0.0 0.0 0.05 0.27 0.27 78 1023.7
20170528005505 53 211 0.0 0.0 0.05 0.27 0.27 78 1023.8
20170528005005 53 211 0.0 0.0 0.05 0.27 0.27 75 1023.7
20170528004504 53 211 0.0 0.0 0.05 0.27 0.27 76 1023.6
20170528004005 53 211 0.0 1.0 0.05 0.27 0.27 76 1023.4
20170528003505 54 211 0.0 1.0 0.05 0.27 0.27 75 1023.3
20170528003005 54 211 0.0 3.0 0.05 0.27 0.27 76 1023.5
20170528002504 54 331 2.0 8.0 0.05 0.27 0.27 72 1023.8
20170528002004 55 325 1.0 2.0 0.05 0.27 0.27 73 1023.7
20170528001505 55 326 1.0 5.0 0.05 0.27 0.27 71 1023.7